Location: Moscow
(55.7500°N, 37.5830°E)
Time: 18:24:36
(UTC+03:00)

ISS - Pass Details

Date: 17 March 2026
Orbit: 416 x 425 km, 51.6° (Epoch: 19 April)

Event Time Altitude Azimuth Distance (km) Brightness Sun altitude
Rises 20:13:56 0° 249° (WSW) 2,386 0.9 -14.2°
Reaches altitude 10° 20:16:07 10° 242° (WSW) 1,519 -0.3 -14.5°
Maximum altitude 20:19:19 39° 172° (S) 660 -3.0 -14.9°
Enters shadow 20:20:14 31° 134° (SE) 768 -3.0 -15.0°
